Location: DARK SKY Beskydy - Park tmavé oblohy, www.darkskybeskydy.cz
(49.4926°N, 18.5016°E)
Time: 22:20:25
(UTC+02:00)

ACS3 Solar Sail - Pass Details

Date: 20 June 2024
Orbit: 992 x 1023 km, 97.4° (Epoch: 12 July)

Event Time Altitude Azimuth Distance (km) Brightness Sun altitude
Exits shadow 23:51:24 - 221° (SW) 3,361 7.3 -16.0°
Reaches altitude 10° 23:53:39 10° 235° (SW) 2,764 6.9 -16.1°
Maximum altitude 23:57:42 18° 276° (W) 2,246 6.9 -16.2°
Drops below altitude 10° 00:01:45 10° 317° (NW) 2,768 8.1 -16.4°
Sets 00:05:12 0° 336° (NNW) 3,720 9.4 -16.5°
